This is the latest recevied weather packets stored in our database for station/object K5NWZ. If no packets are shown the sender has not sent any weather packets the latest 10 day(s).
| Time | Temp. | Humidity | Pressure | Rain* | Wind** | Luminosity | Snow |
|---|---|---|---|---|---|---|---|
| 1788126627 | 24.44° C | 39% | 1027.7 hPa | 0 mm | - | 131 W/m² | - |
| 1788126322 | 24.44° C | 39% | 1027.9 hPa | 0 mm | - | 120 W/m² | - |
| 1788126022 | 23.89° C | 41% | 1027.9 hPa | 0 mm | - | 138 W/m² | - |
| 1788125722 | 23.89° C | 42% | 1027.9 hPa | 0 mm | - | 148 W/m² | - |
| 1788125417 | 23.89° C | 45% | 1028.2 hPa | 0 mm | - | 193 W/m² | - |
| 1788125113 | 23.33° C | 47% | 1028.3 hPa | 0 mm | - | 227 W/m² | - |
| 1788124808 | 23.33° C | 45% | 1028.3 hPa | 0 mm | - | 181 W/m² | - |
| 1788124503 | 23.33° C | 45% | 1028.7 hPa | 0 mm | - | 205 W/m² | - |
| 1788124197 | 23.33° C | 45% | 1028.7 hPa | 0 mm | - | 125 W/m² | - |
| 1788123897 | 22.78° C | 46% | 1028.6 hPa | 0 mm | - | 158 W/m² | - |
| 1788123595 | 23.33° C | 50% | 1028.6 hPa | 0 mm | - | 124 W/m² | - |
| 1788123294 | 23.89° C | 43% | 1028.7 hPa | 0 mm | - | 75 W/m² | - |
| 1788122990 | 25° C | 41% | 1028.4 hPa | 0 mm | - | 64 W/m² | - |
| 1788122688 | 25° C | 43% | 1027.9 hPa | 0 mm | - | 95 W/m² | - |
| 1788122383 | 25° C | 47% | 1028.3 hPa | 0 mm | - | 146 W/m² | - |
| 1788122080 | 24.44° C | 47% | 1028.3 hPa | 0 mm | - | 119 W/m² | - |
| 1788121779 | 25° C | 48% | 1028.2 hPa | 0 mm | - | 79 W/m² | - |
| 1788121475 | 25° C | 47% | 1028.6 hPa | 0 mm | - | 92 W/m² | - |
| 1788121171 | 25° C | 46% | 1028.3 hPa | 0 mm | - | 149 W/m² | - |
| 1788120869 | 25° C | 47% | 1028.1 hPa | 0 mm | - | 172 W/m² | - |
| 1788120565 | 25.56° C | 45% | 1028 hPa | 0 mm | - | 255 W/m² | - |
| 1788120265 | 25° C | 45% | 1028 hPa | 0 mm | - | 324 W/m² | - |
| 1788119955 | 25° C | 45% | 1027.6 hPa | 0 mm | - | 650 W/m² | - |
| 1788119655 | 24.44° C | 46% | 1027.6 hPa | 0 mm | - | 844 W/m² | - |
| 1788119352 | 23.89° C | 48% | 1027.7 hPa | 0 mm | - | 974 W/m² | - |
* Rain latest hour (hover to see other rain measurements)
** Current wind speed in m/s (hover to see current wind gust speed)